Location: Fauquembergues
(50.6005°N, 2.0987°E)
Time: 20:54:03
(UTC+00:00)

SL-8 R/B - Pass Details

Date: 14 July 2020
Orbit: 656 x 667 km, 48.4° (Epoch: 14 August)

Event Time Altitude Azimuth Distance (km) Brightness Sun altitude
Exits shadow 01:46:36 20° 227° (SW) 1,526 5.0 -13.9°
Maximum altitude 01:49:40 48° 160° (SSE) 862 4.0 -13.7°
Drops below altitude 10° 01:54:17 10° 87° (E) 2,081 6.7 -13.3°
Sets 01:56:41 0° 82° (E) 2,993 7.6 -13.1°
